,,Stat5,,Stat1,,Stat2,,Stat3,,Stat4,,Wind1,,Wind1,
time,status,PA1M_AVG,status,PR1M_SUM,status,RH1M_AVG,status,SR1M_AVG,status,TA1M_AVG,status,W1dAve1m,status,W1sAve1m,
2002-06-02, 00:00:01,VALID,918.749,VALID,0,VALID,98.075,VALID,0.0339617,VALID,18.6473,VALID,52,VALID,0.696289,
2002-06-02, 00:01:00,VALID,918.722,VALID,0,VALID,98.089,VALID,0.0679233,VALID,18.6053,VALID,50,VALID,0.852232,
2002-06-02, 00:02:01,VALID,918.707,VALID,0,VALID,98.2569,VALID,0.0169808,VALID,18.6219,VALID,50,VALID,1.02551,
2002-06-02, 00:03:00,VALID,918.664,VALID,0,VALID,98.3904,VALID,0.0169808,VALID,18.654,VALID,46,VALID,1.08262,
2002-06-02, 00:04:00,VALID,918.636,VALID,0,VALID,98.3675,VALID,0.0679233,VALID,18.6637,VALID,47,VALID,0.892045,
2002-06-02, 00:05:00,VALID,918.599,VALID,0,VALID,98.4375,VALID,0.0169808,VALID,18.6897,VALID,50,VALID,0.627009,
2002-06-02, 00:06:00,VALID,918.57,VALID,0,VALID,98.3459,VALID,0.0169808,VALID,18.6925,VALID,51,VALID,0.558203,
2002-06-02, 00:07:00,VALID,918.548,VALID,0,VALID,98.2823,VALID,0.0169808,VALID,18.6796,VALID,51,VALID,0.360938,
2002-06-02, 00:08:01,VALID,918.532,VALID,0,VALID,98.2022,VALID,0.0169808,VALID,18.6696,VALID,51,VALID,0.0517004,
2002-06-02, 00:09:00,VALID,918.535,VALID,0,VALID,98.1285,VALID,0.0169808,VALID,18.6473,VALID,51,VALID,0,
2002-06-02, 00:10:00,VALID,918.549,VALID,0,VALID,98.0712,VALID,0,VALID,18.6189,VALID,49,VALID,0.248343,
2002-06-02, 00:11:00,VALID,918.524,VALID,0,VALID,98.028,VALID,0.0339617,VALID,18.5864,VALID,13,VALID,0.416295,
2002-06-02, 00:12:00,VALID,918.5,VALID,0,VALID,98.1704,VALID,0,VALID,18.6055,VALID,4,VALID,0.599095,
2002-06-02, 00:13:00,VALID,918.5,VALID,0,VALID,98.1641,VALID,0.0339617,VALID,18.6058,VALID,16,VALID,0.761161,
2002-06-02, 00:14:01,VALID,918.472,VALID,0,VALID,98.0178,VALID,0.0339617,VALID,18.5444,VALID,21,VALID,0.830653,
2002-06-02, 00:15:00,VALID,918.44,VALID,0,VALID,98.1717,VALID,0,VALID,18.5347,VALID,33,VALID,0.809961,
2002-06-02, 00:16:00,VALID,918.414,VALID,0,VALID,98.4018,VALID,0.0509425,VALID,18.5439,VALID,33,VALID,0.600616,
2002-06-02, 00:17:00,VALID,918.372,VALID,0,VALID,98.5188,VALID,0.0339617,VALID,18.5765,VALID,33,VALID,0.421875,
2002-06-02, 00:18:00,VALID,918.34,VALID,0,VALID,98.5315,VALID,0.0509425,VALID,18.5894,VALID,34,VALID,0.616406,
2002-06-02, 00:19:00,VALID,918.297,VALID,0,VALID,98.59,VALID,0.0339617,VALID,18.5993,VALID,34,VALID,0.617188,
2002-06-02, 00:20:01,VALID,918.288,VALID,0,VALID,98.5951,VALID,0.0169808,VALID,18.5928,VALID,34,VALID,0.402803,
2002-06-02, 00:21:00,VALID,918.262,VALID,0,VALID,98.6333,VALID,0,VALID,18.5896,VALID,34,VALID,0.212109,
2002-06-02, 00:22:00,VALID,918.248,VALID,0,VALID,98.5125,VALID,0,VALID,18.5541,VALID,38,VALID,0.11482,
2002-06-02, 00:23:00,VALID,918.234,VALID,0,VALID,98.4896,VALID,0.0509425,VALID,18.5186,VALID,96,VALID,0.237054,
2002-06-02, 00:24:00,VALID,918.243,VALID,0,VALID,98.4629,VALID,0.0169808,VALID,18.4766,VALID,96,VALID,0.0994141,
2002-06-02, 00:25:00,VALID,918.234,VALID,0,VALID,98.4743,VALID,0,VALID,18.4378,VALID,96,VALID,0.369196,
2002-06-02, 00:26:01,VALID,918.22,VALID,0,VALID,98.5684,VALID,0,VALID,18.4088,VALID,111,VALID,0.536535,
2002-06-02, 00:27:00,VALID,918.211,VALID,0,VALID,98.674,VALID,0,VALID,18.4182,VALID,124,VALID,0.750586,
2002-06-02, 00:28:00,VALID,918.198,VALID,0,VALID,98.735,VALID,0,VALID,18.4378,VALID,133,VALID,0.953125,
2002-06-02, 00:29:00,VALID,918.189,VALID,0,VALID,98.8876,VALID,0,VALID,18.4609,VALID,142,VALID,1.41429,
2002-06-02, 00:30:00,VALID,918.159,VALID,0,VALID,99.0275,VALID,0,VALID,18.5223,VALID,137,VALID,1.10859,
2002-06-02, 00:31:00,VALID,918.153,VALID,0,VALID,98.9779,VALID,0.0169808,VALID,18.5608,VALID,125,VALID,0.752902,
2002-06-02, 00:32:01,VALID,918.132,VALID,0,VALID,98.8596,VALID,0,VALID,18.5409,VALID,115,VALID,0.855239,
2002-06-02, 00:33:00,VALID,918.096,VALID,0,VALID,98.9258,VALID,0.0169808,VALID,18.5416,VALID,116,VALID,1.2623,
2002-06-02, 00:34:00,VALID,918.068,VALID,0,VALID,98.9016,VALID,0.0169808,VALID,18.5546,VALID,115,VALID,1.10369,
2002-06-02, 00:35:00,VALID,918.047,VALID,0,VALID,98.8952,VALID,0,VALID,18.5516,VALID,118,VALID,1.02054,
2002-06-02, 00:36:00,VALID,918.037,VALID,0,VALID,98.8024,VALID,-0.0169808,VALID,18.5317,VALID,110,VALID,0.805078,
2002-06-02, 00:37:01,VALID,918.029,VALID,0,VALID,98.7808,VALID,0,VALID,18.496,VALID,109,VALID,0.758705,
2002-06-02, 00:38:01,VALID,918.005,VALID,0,VALID,98.8062,VALID,0,VALID,18.5031,VALID,113,VALID,0.774357,
2002-06-02, 00:39:00,VALID,917.992,VALID,0,VALID,98.7617,VALID,0.0169808,VALID,18.4895,VALID,130,VALID,0.67168,
2002-06-02, 00:40:00,VALID,917.965,VALID,0,VALID,98.7986,VALID,0.0339617,VALID,18.4798,VALID,136,VALID,0.843513,
2002-06-02, 00:41:00,VALID,917.954,VALID,0,VALID,98.8545,VALID,0.0339617,VALID,18.4962,VALID,138,VALID,1.09754,
2002-06-02, 00:42:00,VALID,917.941,VALID,0,VALID,98.8393,VALID,0,VALID,18.5123,VALID,127,VALID,1.08359,
2002-06-02, 00:43:01,VALID,917.917,VALID,0,VALID,98.8139,VALID,0,VALID,18.5096,VALID,119,VALID,0.878125,
2002-06-02, 00:44:01,VALID,917.892,VALID,0,VALID,98.8749,VALID,0,VALID,18.516,VALID,132,VALID,0.759881,
2002-06-02, 00:45:00,VALID,917.9,VALID,0,VALID,98.9105,VALID,0,VALID,18.5384,VALID,122,VALID,0.576563,
2002-06-02, 00:46:01,VALID,917.921,VALID,0,VALID,98.8634,VALID,0,VALID,18.5416,VALID,125,VALID,0.566051,
2002-06-02, 00:47:00,VALID,917.939,VALID,0,VALID,98.8291,VALID,0,VALID,18.5384,VALID,141,VALID,0.866741,
2002-06-02, 00:48:00,VALID,917.936,VALID,0,VALID,98.8584,VALID,-0.0169808,VALID,18.5382,VALID,138,VALID,0.810156,
2002-06-02, 00:49:01,VALID,917.946,VALID,0,VALID,98.9003,VALID,0,VALID,18.5481,VALID,130,VALID,0.644643,
2002-06-02, 00:50:01,VALID,917.952,VALID,0,VALID,98.8851,VALID,-0.0169808,VALID,18.5578,VALID,121,VALID,0.72886,
2002-06-02, 00:51:00,VALID,917.948,VALID,0,VALID,98.9601,VALID,-0.0339617,VALID,18.5836,VALID,120,VALID,0.935547,
2002-06-02, 00:52:01,VALID,917.936,VALID,0,VALID,98.9359,VALID,-0.0339617,VALID,18.6196,VALID,120,VALID,0.793561,
2002-06-02, 00:53:01,VALID,917.939,VALID,0,VALID,98.9207,VALID,-0.0169808,VALID,18.6288,VALID,121,VALID,0.90625,
2002-06-02, 00:54:01,VALID,917.929,VALID,0,VALID,98.8545,VALID,0,VALID,18.6388,VALID,127,VALID,0.647656,
2002-06-02, 00:55:01,VALID,917.904,VALID,0,VALID,98.7884,VALID,0.0169808,VALID,18.6191,VALID,110,VALID,0.578795,
2002-06-02, 00:56:01,VALID,917.882,VALID,0,VALID,98.7388,VALID,0,VALID,18.6226,VALID,111,VALID,0.497702,
2002-06-02, 00:57:01,VALID,917.862,VALID,0,VALID,98.8088,VALID,-0.0339617,VALID,18.606,VALID,103,VALID,0.764453,
2002-06-02, 00:58:01,VALID,917.855,VALID,0,VALID,98.81,VALID,0,VALID,18.6221,VALID,93,VALID,0.755919,
2002-06-02, 00:59:01,VALID,917.848,VALID,0,VALID,98.7643,VALID,0,VALID,18.6388,VALID,90,VALID,0.911607,
2002-06-02, 01:00:01,VALID,917.815,VALID,0,VALID,98.7859,VALID,0,VALID,18.6517,VALID,85,VALID,0.959766,
2002-06-02, 01:01:01,VALID,917.809,VALID,0,VALID,98.5176,VALID,0,VALID,18.6325,VALID,82,VALID,1.16607,
2002-06-02, 01:02:01,VALID,917.807,VALID,0,VALID,98.3713,VALID,-0.0169808,VALID,18.5866,VALID,69,VALID,1.17188,
2002-06-02, 01:03:01,VALID,917.788,VALID,0,VALID,98.3065,VALID,0.0169808,VALID,18.5414,VALID,67,VALID,1.3459,
2002-06-02, 01:04:01,VALID,917.771,VALID,0,VALID,98.2632,VALID,0,VALID,18.5386,VALID,69,VALID,1.20502,
2002-06-02, 01:05:01,VALID,917.775,VALID,0,VALID,98.2696,VALID,0.0169808,VALID,18.5153,VALID,79,VALID,1.21875,
2002-06-02, 01:06:01,VALID,917.77,VALID,0,VALID,98.2887,VALID,0,VALID,18.5059,VALID,81,VALID,1.29707,
2002-06-02, 01:07:01,VALID,917.804,VALID,0,VALID,98.2505,VALID,0,VALID,18.5223,VALID,89,VALID,1.27902,
2002-06-02, 01:08:01,VALID,917.8,VALID,0,VALID,98.0878,VALID,0,VALID,18.5123,VALID,91,VALID,1.14361,
2002-06-02, 01:09:01,VALID,917.827,VALID,0,VALID,97.9835,VALID,0.0169808,VALID,18.483,VALID,89,VALID,1.10566,
2002-06-02, 01:10:01,VALID,917.839,VALID,0,VALID,97.9644,VALID,-0.0849042,VALID,18.4648,VALID,98,VALID,1.0554,
2002-06-02, 01:11:00,VALID,917.835,VALID,0,VALID,98.1488,VALID,-0.101885,VALID,18.4881,VALID,112,VALID,0.91808,
2002-06-02, 01:12:00,VALID,917.832,VALID,0,VALID,98.1005,VALID,-0.101885,VALID,18.5135,VALID,115,VALID,0.548633,
2002-06-02, 01:13:00,VALID,917.832,VALID,0,VALID,98.145,VALID,-0.101885,VALID,18.5227,VALID,115,VALID,0.8875,
2002-06-02, 01:14:00,VALID,917.801,VALID,0,VALID,98.0789,VALID,-0.101885,VALID,18.5391,VALID,120,VALID,0.814568,
2002-06-02, 01:15:00,VALID,917.777,VALID,0,VALID,97.9708,VALID,-0.101885,VALID,18.5396,VALID,119,VALID,0.660937,
2002-06-02, 01:16:00,VALID,917.755,VALID,0,VALID,97.972,VALID,-0.0849042,VALID,18.5301,VALID,120,VALID,0.816525,
2002-06-02, 01:17:00,VALID,917.728,VALID,0,VALID,98.089,VALID,-0.101885,VALID,18.5463,VALID,110,VALID,0.850223,
2002-06-02, 01:18:00,VALID,917.721,VALID,0,VALID,98.1335,VALID,-0.101885,VALID,18.5723,VALID,102,VALID,0.663672,
2002-06-02, 01:19:00,VALID,917.709,VALID,0,VALID,97.8958,VALID,-0.101885,VALID,18.5428,VALID,70,VALID,0.385491,
2002-06-02, 01:20:00,VALID,917.714,VALID,0,VALID,97.3718,VALID,-0.0849042,VALID,18.4328,VALID,64,VALID,0.275506,
2002-06-02, 01:21:00,VALID,917.695,VALID,0,VALID,97.1277,VALID,-0.0849042,VALID,18.3488,VALID,64,VALID,0.0234375,
2002-06-02, 01:22:00,VALID,917.699,VALID,0,VALID,97.0705,VALID,-0.0849042,VALID,18.2907,VALID,64,VALID,0,
2002-06-02, 01:23:00,VALID,917.684,VALID,0,VALID,97.1976,VALID,-0.101885,VALID,18.2522,VALID,64,VALID,0.09375,
2002-06-02, 01:24:00,VALID,917.657,VALID,0,VALID,97.3337,VALID,-0.0849042,VALID,18.2455,VALID,67,VALID,0.394336,
2002-06-02, 01:25:00,VALID,917.627,VALID,0,VALID,97.7851,VALID,0.0339617,VALID,18.2671,VALID,80,VALID,0.930357,
2002-06-02, 01:26:00,VALID,917.581,VALID,0,VALID,98.1958,VALID,0,VALID,18.338,VALID,83,VALID,1.21438,
2002-06-02, 01:27:00,VALID,917.548,VALID,0,VALID,98.3217,VALID,0,VALID,18.4125,VALID,85,VALID,1.0668,
2002-06-02, 01:28:00,VALID,917.522,VALID,0,VALID,98.1399,VALID,0,VALID,18.4189,VALID,84,VALID,0.825521,
2002-06-02, 01:29:00,VALID,917.523,VALID,0,VALID,98.075,VALID,0.0509425,VALID,18.3924,VALID,86,VALID,1.04844,
2002-06-02, 01:30:00,VALID,917.507,VALID,0,VALID,98.1297,VALID,0,VALID,18.4023,VALID,87,VALID,1.05508,
2002-06-02, 01:31:00,VALID,917.499,VALID,0,VALID,98.0903,VALID,-0.0169808,VALID,18.4224,VALID,83,VALID,1.10513,
2002-06-02, 01:32:00,VALID,917.491,VALID,0,VALID,98.0255,VALID,0,VALID,18.4388,VALID,99,VALID,0.875,
2002-06-02, 01:33:00,VALID,917.483,VALID,0,VALID,98.0382,VALID,0,VALID,18.4512,VALID,102,VALID,0.48125,
2002-06-02, 01:34:00,VALID,917.486,VALID,0,VALID,97.9924,VALID,0,VALID,18.4738,VALID,113,VALID,0.450758,
2002-06-02, 01:35:00,VALID,917.493,VALID,0,VALID,97.7762,VALID,-0.0169808,VALID,18.4842,VALID,145,VALID,0.55625,
2002-06-02, 01:36:00,VALID,917.499,VALID,0,VALID,97.4431,VALID,0,VALID,18.4487,VALID,145,VALID,0.585742,
2002-06-02, 01:37:00,VALID,917.483,VALID,0,VALID,97.3134,VALID,0,VALID,18.3936,VALID,96,VALID,0.771205,
2002-06-02, 01:38:00,VALID,917.469,VALID,0,VALID,97.2752,VALID,0,VALID,18.335,VALID,70,VALID,1.08479,
2002-06-02, 01:39:00,VALID,917.435,VALID,0,VALID,97.4621,VALID,-0.0169808,VALID,18.3193,VALID,73,VALID,1.4332,
2002-06-02, 01:40:00,VALID,917.39,VALID,0,VALID,97.7139,VALID,0.0169808,VALID,18.3064,VALID,79,VALID,1.50663,
2002-06-02, 01:41:00,VALID,917.362,VALID,0,VALID,98.0331,VALID,-0.0169808,VALID,18.287,VALID,91,VALID,1.39375,
2002-06-02, 01:42:00,VALID,917.319,VALID,0,VALID,98.3065,VALID,0,VALID,18.2801,VALID,103,VALID,1.30469,
2002-06-02, 01:43:00,VALID,917.284,VALID,0,VALID,98.3039,VALID,0,VALID,18.2575,VALID,108,VALID,0.986384,
2002-06-02, 01:44:00,VALID,917.274,VALID,0,VALID,98.4527,VALID,-0.0169808,VALID,18.2842,VALID,92,VALID,1.15855,
2002-06-02, 01:45:00,VALID,917.256,VALID,0,VALID,98.2632,VALID,0,VALID,18.2644,VALID,85,VALID,1.1709,
2002-06-02, 01:46:00,VALID,917.236,VALID,0,VALID,98.1831,VALID,-0.0169808,VALID,18.2291,VALID,89,VALID,1.19484,
2002-06-02, 01:47:00,VALID,917.222,VALID,0,VALID,98.0649,VALID,0,VALID,18.2035,VALID,95,VALID,1.17612,
2002-06-02, 01:48:00,VALID,917.202,VALID,0,VALID,98.3052,VALID,-0.0169808,VALID,18.1834,VALID,102,VALID,1.3168,
2002-06-02, 01:49:00,VALID,917.185,VALID,0,VALID,98.4591,VALID,0,VALID,18.2157,VALID,105,VALID,1.30714,
2002-06-02, 01:50:00,VALID,917.151,VALID,0,VALID,98.4985,VALID,0.0169808,VALID,18.2194,VALID,99,VALID,1.1921,
2002-06-02, 01:51:00,VALID,917.121,VALID,0,VALID,98.5786,VALID,0,VALID,18.1899,VALID,95,VALID,0.973242,
2002-06-02, 01:52:00,VALID,917.074,VALID,0,VALID,98.5099,VALID,0,VALID,18.1541,VALID,82,VALID,1.09943,
2002-06-02, 01:53:00,VALID,917.061,VALID,0,VALID,98.5811,VALID,0,VALID,18.1122,VALID,79,VALID,1.15871,
2002-06-02, 01:54:00,VALID,917.036,VALID,0,VALID,98.6625,VALID,0.0169808,VALID,18.099,VALID,86,VALID,1.18398,
2002-06-02, 01:55:00,VALID,917.024,VALID,0,VALID,98.6841,VALID,-0.0169808,VALID,18.0898,VALID,93,VALID,0.966071,
2002-06-02, 01:56:00,VALID,917.038,VALID,0,VALID,98.6078,VALID,0,VALID,18.0642,VALID,96,VALID,0.868566,
2002-06-02, 01:57:00,VALID,917.024,VALID,0,VALID,98.6778,VALID,0,VALID,18.0413,VALID,104,VALID,0.765234,
2002-06-02, 01:58:00,VALID,917.016,VALID,0,VALID,98.7744,VALID,-0.0339617,VALID,18.0443,VALID,120,VALID,0.757813,
2002-06-02, 01:59:00,VALID,916.998,VALID,0,VALID,98.7274,VALID,0,VALID,18.0543,VALID,144,VALID,1.29487,
2002-06-02, 02:00:00,VALID,916.972,VALID,0,VALID,98.7782,VALID,0,VALID,18.0609,VALID,143,VALID,1.3709,
2002-06-02, 02:01:00,VALID,916.948,VALID,0,VALID,98.8126,VALID,0,VALID,18.0672,VALID,139,VALID,0.977009,
2002-06-02, 02:02:00,VALID,916.923,VALID,0,VALID,98.8062,VALID,-0.0339617,VALID,18.0771,VALID,146,VALID,1.16843,
2002-06-02, 02:03:00,VALID,916.911,VALID,0,VALID,98.7973,VALID,-0.0169808,VALID,18.0543,VALID,144,VALID,0.901953,
2002-06-02, 02:04:00,VALID,916.891,VALID,0,VALID,98.8189,VALID,0,VALID,18.0351,VALID,136,VALID,0.834754,
2002-06-02, 02:05:00,VALID,916.893,VALID,0,VALID,98.9143,VALID,-0.0169808,VALID,18.0321,VALID,132,VALID,0.826116,
2002-06-02, 02:06:00,VALID,916.886,VALID,0,VALID,99.0084,VALID,-0.0339617,VALID,18.0351,VALID,139,VALID,0.604883,
2002-06-02, 02:07:00,VALID,916.891,VALID,0,VALID,99.0402,VALID,-0.0169808,VALID,18.0416,VALID,150,VALID,0.387946,
2002-06-02, 02:08:00,VALID,916.889,VALID,0,VALID,99.0567,VALID,-0.0339617,VALID,18.0713,VALID,160,VALID,0.234835,
2002-06-02, 02:09:00,VALID,916.883,VALID,0,VALID,99.0275,VALID,-0.0339617,VALID,18.0547,VALID,204,VALID,0.395898,
2002-06-02, 02:10:00,VALID,916.891,VALID,0,VALID,99.0122,VALID,-0.0339617,VALID,18.0263,VALID,219,VALID,0.311316,
2002-06-02, 02:11:00,VALID,916.872,VALID,0,VALID,99.044,VALID,0,VALID,18.016,VALID,219,VALID,0.00491071,
2002-06-02, 02:12:00,VALID,916.854,VALID,0,VALID,98.9893,VALID,-0.0169808,VALID,17.9936,VALID,190,VALID,0.111523,
2002-06-02, 02:13:00,VALID,916.851,VALID,0,VALID,98.9372,VALID,-0.0509425,VALID,17.9382,VALID,73,VALID,0.546875,
2002-06-02, 02:14:00,VALID,916.813,VALID,0,VALID,99.0173,VALID,-0.0169808,VALID,17.9129,VALID,78,VALID,1.03217,
2002-06-02, 02:15:00,VALID,916.783,VALID,0,VALID,99.1572,VALID,-0.0169808,VALID,17.9286,VALID,81,VALID,1.2752,
2002-06-02, 02:16:00,VALID,916.754,VALID,0,VALID,99.2169,VALID,-0.0169808,VALID,17.9708,VALID,86,VALID,1.32528,
2002-06-02, 02:17:00,VALID,916.733,VALID,0,VALID,99.2335,VALID,-0.0339617,VALID,18.0164,VALID,86,VALID,1.22098,
2002-06-02, 02:18:00,VALID,916.701,VALID,0,VALID,99.1763,VALID,-0.0169808,VALID,18.003,VALID,87,VALID,1.00312,
2002-06-02, 02:19:00,VALID,916.676,VALID,0,VALID,99.0923,VALID,-0.0509425,VALID,17.9712,VALID,87,VALID,0.9,
2002-06-02, 02:20:00,VALID,916.659,VALID,0,VALID,99.1381,VALID,-0.0169808,VALID,17.9871,VALID,92,VALID,0.840303,
2002-06-02, 02:21:00,VALID,916.644,VALID,0,VALID,99.133,VALID,-0.0339617,VALID,18.0067,VALID,98,VALID,0.500391,
2002-06-02, 02:22:00,VALID,916.626,VALID,0,VALID,99.0567,VALID,0,VALID,17.9869,VALID,100,VALID,0.192945,
2002-06-02, 02:23:00,VALID,916.633,VALID,0,VALID,99.0071,VALID,0,VALID,17.9675,VALID,111,VALID,0.327232,
2002-06-02, 02:24:00,VALID,916.612,VALID,0,VALID,98.9321,VALID,-0.0169808,VALID,17.9521,VALID,97,VALID,0.470117,
2002-06-02, 02:25:00,VALID,916.596,VALID,0,VALID,98.8965,VALID,-0.0339617,VALID,17.8868,VALID,81,VALID,0.783036,
2002-06-02, 02:26:00,VALID,916.569,VALID,0,VALID,99.1318,VALID,0,VALID,17.9327,VALID,83,VALID,0.795496,
2002-06-02, 02:27:00,VALID,916.552,VALID,0,VALID,99.1356,VALID,-0.0169808,VALID,17.974,VALID,89,VALID,0.845312,
2002-06-02, 02:28:00,VALID,916.565,VALID,0,VALID,99.0885,VALID,-0.0509425,VALID,18.0035,VALID,84,VALID,0.873343,
2002-06-02, 02:29:00,VALID,916.549,VALID,0,VALID,99.1763,VALID,0,VALID,18.0487,VALID,104,VALID,0.820982,
2002-06-02, 02:30:00,VALID,916.538,VALID,0,VALID,99.2144,VALID,-0.0339617,VALID,18.0935,VALID,129,VALID,0.899219,
2002-06-02, 02:31:00,VALID,916.533,VALID,0,VALID,99.1546,VALID,-0.0169808,VALID,18.1228,VALID,134,VALID,0.694643,
2002-06-02, 02:32:00,VALID,916.52,VALID,0,VALID,99.058,VALID,-0.0169808,VALID,18.1034,VALID,129,VALID,0.518153,
2002-06-02, 02:33:00,VALID,916.52,VALID,0,VALID,98.9957,VALID,-0.0169808,VALID,18.0773,VALID,130,VALID,0.7625,
2002-06-02, 02:34:00,VALID,916.511,VALID,0,VALID,98.9868,VALID,-0.0679233,VALID,18.0616,VALID,127,VALID,0.817708,
2002-06-02, 02:35:00,VALID,916.511,VALID,0,VALID,98.9461,VALID,-0.0339617,VALID,18.0326,VALID,138,VALID,0.787277,
2002-06-02, 02:36:00,VALID,916.507,VALID,0,VALID,98.9664,VALID,0,VALID,18.013,VALID,122,VALID,0.697852,
2002-06-02, 02:37:00,VALID,916.506,VALID,0,VALID,99.0351,VALID,0,VALID,18.0358,VALID,117,VALID,0.765625,
2002-06-02, 02:38:00,VALID,916.515,VALID,0,VALID,99.0707,VALID,-0.0169808,VALID,18.0351,VALID,118,VALID,0.624081,
2002-06-02, 02:39:00,VALID,916.516,VALID,0,VALID,99.044,VALID,0,VALID,18.0353,VALID,129,VALID,0.760547,
2002-06-02, 02:40:00,VALID,916.506,VALID,0,VALID,99.0542,VALID,0.0509425,VALID,18.0377,VALID,142,VALID,0.931108,
2002-06-02, 02:41:00,VALID,916.494,VALID,0,VALID,99.0555,VALID,0.101885,VALID,18.0469,VALID,137,VALID,0.769643,
2002-06-02, 02:42:00,VALID,916.48,VALID,0,VALID,99.0377,VALID,0.0849042,VALID,18.0538,VALID,134,VALID,0.448047,
2002-06-02, 02:43:00,VALID,916.461,VALID,0,VALID,99.0923,VALID,0.0679233,VALID,18.0469,VALID,128,VALID,0.610937,
2002-06-02, 02:44:00,VALID,916.445,VALID,0,VALID,99.086,VALID,0.0509425,VALID,18.0667,VALID,124,VALID,0.622243,
2002-06-02, 02:45:00,VALID,916.441,VALID,0,VALID,99.0466,VALID,0.101885,VALID,18.0706,VALID,119,VALID,0.647461,
2002-06-02, 02:46:00,VALID,916.424,VALID,0,VALID,99.0936,VALID,0.0509425,VALID,18.0633,VALID,103,VALID,0.851799,
2002-06-02, 02:47:00,VALID,916.405,VALID,0,VALID,99.1241,VALID,0.0679233,VALID,18.0829,VALID,104,VALID,0.917411,
2002-06-02, 02:48:00,VALID,916.398,VALID,0,VALID,99.1406,VALID,0.0849042,VALID,18.1055,VALID,98,VALID,0.954492,
2002-06-02, 02:49:00,VALID,916.401,VALID,0,VALID,99.1127,VALID,0.0679233,VALID,18.1248,VALID,104,VALID,0.921429,
2002-06-02, 02:50:00,VALID,916.396,VALID,0,VALID,98.9868,VALID,0.101885,VALID,18.1285,VALID,96,VALID,0.918658,
2002-06-02, 02:51:00,VALID,916.377,VALID,0,VALID,98.9563,VALID,0.0849042,VALID,18.0762,VALID,82,VALID,1.10508,
2002-06-02, 02:52:00,VALID,916.36,VALID,0,VALID,98.9054,VALID,0.0849042,VALID,18.0667,VALID,83,VALID,1.24905,
2002-06-02, 02:53:00,VALID,916.342,VALID,0,VALID,98.8851,VALID,0.0849042,VALID,18.0536,VALID,90,VALID,1.17478,
2002-06-02, 02:54:00,VALID,916.304,VALID,0,VALID,98.955,VALID,0.0849042,VALID,18.06,VALID,92,VALID,1.09316,
2002-06-02, 02:55:00,VALID,916.27,VALID,0,VALID,98.9626,VALID,0,VALID,18.0865,VALID,94,VALID,1.07879,
2002-06-02, 02:56:00,VALID,916.226,VALID,0,VALID,98.8952,VALID,0,VALID,18.1124,VALID,98,VALID,0.919118,
2002-06-02, 02:57:00,VALID,916.193,VALID,0,VALID,98.8304,VALID,-0.0169808,VALID,18.1128,VALID,101,VALID,0.986523,
2002-06-02, 02:58:00,VALID,916.146,VALID,0,VALID,98.7375,VALID,-0.0339617,VALID,18.1098,VALID,110,VALID,0.911458,
2002-06-02, 02:59:00,VALID,916.13,VALID,0,VALID,98.693,VALID,-0.0169808,VALID,18.1064,VALID,93,VALID,0.862946,
2002-06-02, 03:00:00,VALID,916.12,VALID,0,VALID,98.5913,VALID,0,VALID,18.0674,VALID,100,VALID,0.828516,
2002-06-02, 03:01:00,VALID,916.111,VALID,0,VALID,98.5989,VALID,0,VALID,18.0706,VALID,94,VALID,0.852455,
2002-06-02, 03:02:00,VALID,916.11,VALID,0,VALID,98.5697,VALID,0.0169808,VALID,18.0517,VALID,78,VALID,0.966222,
2002-06-02, 03:03:00,VALID,916.125,VALID,0,VALID,98.585,VALID,0,VALID,18.0356,VALID,85,VALID,1.02871,
2002-06-02, 03:04:00,VALID,916.127,VALID,0,VALID,98.5036,VALID,0,VALID,18.0321,VALID,75,VALID,1.0367,
2002-06-02, 03:05:00,VALID,916.118,VALID,0,VALID,98.5392,VALID,0,VALID,18.0061,VALID,76,VALID,1.02321,
2002-06-02, 03:06:00,VALID,916.114,VALID,0,VALID,98.4794,VALID,0,VALID,17.9961,VALID,74,VALID,0.844922,
2002-06-02, 03:07:00,VALID,916.102,VALID,0,VALID,98.5112,VALID,0,VALID,17.9641,VALID,78,VALID,0.894866,
2002-06-02, 03:08:00,VALID,916.094,VALID,0,VALID,98.6231,VALID,0,VALID,17.9615,VALID,88,VALID,0.924862,
2002-06-02, 03:09:00,VALID,916.072,VALID,0,VALID,98.7388,VALID,0,VALID,17.9708,VALID,103,VALID,0.844336,
2002-06-02, 03:10:00,VALID,916.056,VALID,0,VALID,98.8507,VALID,-0.0169808,VALID,17.9901,VALID,126,VALID,0.755208,
2002-06-02, 03:11:00,VALID,916.055,VALID,0,VALID,98.735,VALID,-0.0509425,VALID,17.9837,VALID,142,VALID,0.920536,
2002-06-02, 03:12:00,VALID,916.063,VALID,0,VALID,98.7592,VALID,-0.0509425,VALID,17.968,VALID,144,VALID,1.02891,
2002-06-02, 03:13:00,VALID,916.059,VALID,0,VALID,98.8647,VALID,-0.0509425,VALID,17.9779,VALID,128,VALID,0.997991,
2002-06-02, 03:14:00,VALID,916.047,VALID,0,VALID,98.8965,VALID,-0.0339617,VALID,17.994,VALID,130,VALID,0.784926,
2002-06-02, 03:15:00,VALID,916.02,VALID,0,VALID,98.9779,VALID,0,VALID,18.0328,VALID,137,VALID,1.09199,
2002-06-02, 03:16:00,VALID,916.014,VALID,0,VALID,98.9664,VALID,-0.0169808,VALID,18.0552,VALID,136,VALID,1.07884,
2002-06-02, 03:17:00,VALID,915.994,VALID,0,VALID,98.8431,VALID,0,VALID,18.0487,VALID,141,VALID,0.971429,
2002-06-02, 03:18:00,VALID,915.981,VALID,0,VALID,98.7922,VALID,-0.0169808,VALID,18.0196,VALID,152,VALID,0.832031,
2002-06-02, 03:19:00,VALID,915.989,VALID,0,VALID,98.7681,VALID,-0.0169808,VALID,18.007,VALID,149,VALID,0.716295,
2002-06-02, 03:20:00,VALID,915.974,VALID,0,VALID,98.763,VALID,-0.0339617,VALID,17.9777,VALID,134,VALID,0.800322,
2002-06-02, 03:21:00,VALID,915.972,VALID,0,VALID,98.7973,VALID,-0.0169808,VALID,17.9482,VALID,138,VALID,0.586523,
2002-06-02, 03:22:00,VALID,915.969,VALID,0,VALID,98.7541,VALID,-0.0169808,VALID,17.9195,VALID,122,VALID,0.462358,
2002-06-02, 03:23:00,VALID,915.966,VALID,0,VALID,98.7592,VALID,-0.0339617,VALID,17.8741,VALID,137,VALID,0.51875,
2002-06-02, 03:24:00,VALID,915.958,VALID,0,VALID,98.8253,VALID,-0.0509425,VALID,17.8582,VALID,113,VALID,0.576758,
2002-06-02, 03:25:00,VALID,915.956,VALID,0,VALID,98.8584,VALID,0,VALID,17.8287,VALID,114,VALID,0.959598,
2002-06-02, 03:26:00,VALID,915.924,VALID,0,VALID,98.8634,VALID,-0.0169808,VALID,17.8231,VALID,115,VALID,0.851333,
2002-06-02, 03:27:00,VALID,915.915,VALID,0,VALID,98.9652,VALID,0,VALID,17.8098,VALID,130,VALID,1.04766,
2002-06-02, 03:28:00,VALID,915.897,VALID,0,VALID,99.0326,VALID,-0.0509425,VALID,17.8229,VALID,141,VALID,0.909328,
2002-06-02, 03:29:00,VALID,915.879,VALID,0,VALID,99.147,VALID,-0.0339617,VALID,17.8552,VALID,143,VALID,1.29598,
2002-06-02, 03:30:00,VALID,915.849,VALID,0,VALID,99.2627,VALID,-0.0509425,VALID,17.9452,VALID,148,VALID,1.56152,
2002-06-02, 03:31:00,VALID,915.832,VALID,0,VALID,99.2754,VALID,-0.0339617,VALID,18.0395,VALID,134,VALID,1.11987,
2002-06-02, 03:32:00,VALID,915.807,VALID,0,VALID,99.1737,VALID,-0.0339617,VALID,18.0422,VALID,127,VALID,0.994715,
2002-06-02, 03:33:00,VALID,915.798,VALID,0,VALID,99.0555,VALID,-0.0339617,VALID,18.045,VALID,136,VALID,1.12148,
2002-06-02, 03:34:00,VALID,915.77,VALID,0,VALID,98.9372,VALID,-0.0339617,VALID,18.0487,VALID,124,VALID,0.827178,
2002-06-02, 03:35:00,VALID,915.768,VALID,0,VALID,98.9334,VALID,-0.0169808,VALID,18.0519,VALID,145,VALID,1.10179,